Vertical_Velocity
15 15 13 9 6 2 -2 -4 -5 -8 -14 -23 -28 -30 -27 -18 -15 -15 -16 -17 -12 -11 -10 -8 3 15 25 31 26 20 13 9 10 11 11 12 10 8 7 8 11 11 9 4 2 -1 -3 -6 -5 -1 3 6 5 5 3 2 4 4 4 4 4 3 1 0 -2 -4 -3 -2 -2
-2 -3 -2 -2 -6 -11 -15 -17 -17 -20 -27 -35 -34 -29 -22 -15 -17 -22 -27 -27 -24 -21 -17 -9 3 15 24 26 22 18 15 12 10 7 5 4 1 -2 -4 -4 2 7 9 7 2 -4 -8 -9 -0 9 14 12 10 8 6 3 5 6 7 4 2 1 0 0 -2 -3 -2 -0 -0
-8 -8 -6 -2 -8 -16 -22 -24 -23 -24 -27 -30 -28 -23 -17 -16 -20 -27 -33 -35 -29 -21 -12 -2 7 15 19 19 14 13 12 12 11 8 2 -5 -9 -12 -13 -13 -10 -5 -2 -2 -9 -14 -13 -6 7 14 16 13 10 7 5 3 4 6 7 3 -1 -2 -1 -2 -3 -2 -0 2 1
2 2 3 8 8 5 1 -4 -8 -12 -15 -18 -19 -17 -15 -15 -19 -25 -29 -27 -17 -7 1 5 9 12 13 12 9 8 9 11 10 10 9 2 -6 -15 -21 -23 -21 -19 -19 -21 -23 -23 -19 -10 0 6 8 7 4 0 -2 -3 -0 2 2 -1 -2 -1 -1 -1 -2 -1 1 2 1
7 3 3 9 18 24 26 24 19 12 2 -9 -14 -17 -19 -22 -20 -18 -15 -9 -0 4 6 7 10 12 10 8 6 6 7 10 11 9 4 -6 -15 -22 -25 -25 -25 -24 -23 -23 -24 -25 -24 -18 -10 -4 -1 -1 -4 -6 -6 -5 -2 -0 -1 -2 -1 0 1 1 1 1 2 3 2
14 13 11 10 14 17 17 14 11 5 -1 -6 -8 -17 -27 -31 -21 -15 -9 -2 4 5 6 10 13 12 9 7 4 2 -1 -3 -7 -12 -17 -22 -25 -25 -24 -23 -22 -18 -12 -9 -12 -14 -14 -11 -7 -6 -7 -8 -6 -5 -3 -1 2 1 0 0 0 1 3 5 3 2 3 4 2
8 13 15 15 14 11 5 -1 -4 -6 -6 -4 -4 -6 -10 -14 -18 -19 -16 -7 3 8 11 13 11 7 3 1 -4 -8 -13 -17 -22 -26 -28 -30 -28 -23 -17 -13 -11 -8 -5 -2 -2 -2 -3 -5 -5 -7 -9 -8 -3 -1 0 2 3 4 4 4 3 4 5 7 3 2 2 3 2
6 10 13 12 11 9 6 4 6 8 10 11 11 8 2 -4 -11 -17 -17 -9 -1 6 12 16 14 9 2 -7 -14 -16 -16 -14 -15 -17 -19 -20 -17 -14 -12 -10 -6 -2 -1 -1 -0 -0 -2 -6 -6 -6 -5 -5 -1 1 3 4 6 8 8 8 6 6 5 5 3 2 2 2 1
2 7 9 9 8 7 6 6 7 8 10 12 14 14 11 5 -2 -6 -7 -4 -2 4 13 22 24 19 9 -6 -11 -10 -7 -3 -4 -6 -8 -8 -7 -7 -7 -8 -5 -2 -1 -2 -1 -1 -2 -3 -1 -0 1 2 5 6 6 6 9 11 11 9 7 6 4 2 2 1 1 -0 -0
-4 2 8 11 8 3 -0 0 3 6 8 10 12 14 13 9 3 0 -0 0 3 10 17 24 26 20 11 0 -2 0 3 3 1 -2 -4 -6 -6 -6 -6 -5 -3 -1 -1 -1 1 2 3 3 5 5 6 7 9 9 8 7 10 11 10 6 6 5 3 0 -1 -1 -1 -2 -2
-6 -2 3 9 8 5 2 1 3 5 8 11 12 13 12 10 7 6 6 6 8 12 16 18 19 16 10 4 4 4 3 1 -1 -2 -3 -2 -2 -3 -3 -3 -3 -1 0 2 4 6 7 7 7 7 6 6 7 7 7 7 7 7 6 3 2 2 1 -1 -3 -3 -3 -3 -3
-2 -1 0 3 6 6 5 5 6 7 8 10 9 9 10 9 6 7 8 9 10 11 12 14 18 18 13 6 4 2 0 -3 -4 -4 -2 -1 -1 -1 -2 -2 -0 2 4 5 5 6 6 6 5 5 4 3 4 5 7 6 5 3 1 -1 -2 -2 -1 -3 -5 -5 -4 -4 -3
1 -0 -2 -2 3 7 9 9 9 9 8 7 5 5 6 7 6 5 6 9 12 14 15 16 18 16 12 5 0 -2 -4 -6 -6 -4 -2 -1 -2 -2 -1 1 3 5 6 5 3 3 4 5 4 4 4 3 3 4 5 4 2 0 -2 -4 -4 -4 -4 -5 -5 -5 -5 -4 -3
3 0 -3 -3 2 6 8 8 8 8 7 5 2 1 2 6 5 4 6 10 12 13 13 14 13 11 7 2 -2 -5 -7 -9 -7 -3 -1 -1 -2 -1 0 3 4 5 4 2 1 2 4 5 4 4 4 4 3 2 2 2 1 -1 -3 -4 -4 -5 -5 -6 -6 -5 -4 -3 -3
6 2 -3 -4 -2 1 3 7 8 8 7 4 -0 -1 1 3 2 3 6 9 9 8 7 9 8 5 2 -1 -3 -6 -8 -9 -6 -3 -2 -3 -3 -1 2 4 3 2 1 0 1 2 4 4 3 3 3 4 3 1 0 -0 -1 -2 -3 -4 -4 -5 -6 -6 -6 -5 -4 -2 -2
8 2 -4 -5 -5 -4 -1 4 7 8 7 4 0 -0 1 1 1 2 4 6 4 2 2 5 2 -1 -3 -3 -3 -4 -6 -7 -5 -4 -3 -5 -4 -1 2 3 1 -0 -1 -0 1 1 1 0 0 1 2 2 2 0 -1 -1 -2 -3 -3 -4 -4 -5 -5 -5 -5 -4 -3 -3 -2
9 3 -2 -2 -1 -1 -2 1 5 7 7 5 2 2 2 0 -1 0 2 2 -0 -0 1 2 -2 -6 -7 -5 -5 -4 -4 -4 -4 -5 -6 -6 -4 -1 1 1 -1 -2 -2 -1 -2 -3 -4 -4 -3 -2 -0 1 1 -0 -1 -2 -2 -3 -3 -4 -4 -4 -4 -5 -4 -3 -3 -3 -2
6 2 -0 1 4 3 2 2 4 6 6 6 5 4 3 -0 -2 -3 -3 -3 -0 2 2 0 -4 -7 -8 -7 -7 -6 -4 -2 -4 -6 -7 -6 -2 -0 1 -0 -1 -2 -2 -2 -4 -6 -7 -8 -6 -4 -2 -0 -0 -0 -1 -1 -2 -2 -3 -3 -3 -3 -3 -3 -3 -3 -3 -3 -3
4 1 0 2 5 6 6 5 3 3 3 4 5 5 4 1 -3 -5 -6 -5 2 6 7 2 -3 -6 -7 -7 -7 -6 -4 -2 -4 -6 -6 -3 1 3 2 0 -0 -1 -2 -3 -5 -7 -8 -8 -7 -6 -3 -1 -0 -0 -0 -0 -0 -1 -1 -1 -2 -2 -2 -2 -2 -3 -3 -3 -4
6 1 -1 0 6 8 8 6 2 -1 -2 0 2 3 3 1 -2 -4 -5 -4 3 8 10 6 -1 -5 -7 -7 -6 -4 -3 -3 -3 -3 -2 1 4 5 4 2 2 0 -2 -4 -6 -7 -7 -7 -7 -5 -3 -0 1 1 1 1 1 0 -0 -1 -1 -1 -2 -2 -3 -3 -4 -4 -4
13 6 0 -1 6 8 8 5 1 -2 -3 -3 -1 -0 -0 -1 -2 -3 -3 -1 5 11 13 9 1 -5 -8 -8 -5 -3 -2 -3 -1 1 2 2 4 5 6 5 4 1 -1 -4 -5 -6 -6 -6 -5 -3 -1 1 2 2 2 1 1 1 0 -1 -1 -2 -2 -3 -3 -4 -4 -5 -5
16 15 11 7 7 7 7 5 3 1 -2 -3 -3 -2 -2 -3 -3 -3 -2 -0 7 13 14 10 2 -3 -7 -8 -5 -4 -2 -2 1 4 4 3 5 7 7 7 5 2 -1 -3 -4 -4 -4 -3 -2 -1 0 2 3 2 2 1 1 1 -0 -1 -1 -2 -3 -4 -4 -4 -4 -5 -5
10 20 25 21 15 11 8 6 6 5 2 -0 -1 -1 -2 -3 -4 -3 -2 -0 7 13 15 12 5 -0 -4 -6 -4 -4 -3 -1 3 5 6 5 7 8 9 9 6 3 0 -2 -3 -3 -2 -2 -2 -1 -0 1 2 2 1 1 1 0 -0 -1 -2 -3 -3 -4 -5 -4 -4 -4 -4
-6 8 21 27 23 16 11 8 7 6 4 2 2 1 -1 -3 -4 -4 -4 -3 5 12 15 14 8 3 -0 -2 -2 -3 -3 -2 1 3 5 6 8 9 10 8 7 5 2 -1 -1 -1 -2 -2 -2 -2 -1 0 1 1 1 0 0 -0 -1 -1 -2 -3 -4 -4 -5 -4 -4 -4 -4
-19 -8 5 19 21 17 11 7 5 4 3 3 5 5 3 -0 -4 -7 -7 -5 2 10 14 14 9 6 3 1 -0 -1 -2 -1 -0 1 2 6 9 10 9 8 7 5 3 1 1 1 -0 -1 -2 -2 -2 -1 0 1 1 0 0 -0 -1 -1 -2 -3 -3 -4 -4 -4 -4 -3 -3
-16 -13 -5 9 14 13 8 3 0 -0 2 6 10 10 7 2 -3 -7 -8 -4 2 9 13 13 9 6 4 4 1 -0 -0 1 1 1 2 5 8 9 8 6 5 3 2 1 1 0 -0 -0 -0 -1 -1 -1 -0 0 1 1 -0 -0 -1 -1 -2 -3 -3 -3 -3 -3 -3 -2 -2
-8 -5 2 13 13 7 -1 -7 -4 1 7 11 13 11 7 3 -1 -4 -5 -2 4 9 13 12 7 5 5 7 3 -0 -2 0 3 5 5 6 6 6 5 4 2 1 1 0 -1 -1 -1 -1 -1 -0 -0 -0 0 1 1 1 0 -0 -0 -1 -2 -3 -2 -2 -2 -2 -1 -1 -2
-4 2 9 19 16 5 -6 -9 -2 4 9 12 11 9 7 5 1 -2 -2 0 6 11 13 10 6 5 6 8 5 1 -1 1 4 6 7 8 7 5 3 1 0 0 0 -0 -1 -2 -2 -2 -1 -1 -0 1 1 2 2 2 1 0 -0 -1 -2 -2 -2 -1 -1 -1 -0 0 -0
-4 2 8 15 12 6 1 0 3 6 8 11 12 10 8 5 1 -1 -1 2 8 10 8 4 3 4 6 6 4 4 5 6 5 6 8 10 9 7 3 -1 -1 -0 1 1 -1 -2 -2 -2 -1 -0 1 1 2 2 2 2 2 1 -0 -1 -2 -1 -1 -1 -1 -0 1 1 0
-3 3 7 8 7 7 7 7 8 10 12 12 12 10 5 0 -2 -2 -0 2 6 6 5 2 3 3 2 1 3 7 9 9 7 6 6 7 7 5 2 -2 -2 -0 1 2 0 -1 -2 -2 -1 0 1 2 3 3 3 2 1 1 -0 -1 -1 -1 -1 -1 -0 1 1 1 1
-1 6 10 8 5 5 6 7 11 13 12 10 7 4 0 -2 -3 -2 0 3 6 9 11 11 8 5 3 1 4 7 9 8 6 6 6 6 5 3 1 -3 -2 -0 2 2 1 -1 -1 -1 0 1 2 2 2 2 2 2 1 0 -0 -1 -1 -1 -1 -0 0 1 1 0 1
2 9 15 15 9 4 1 3 7 8 6 3 -0 -3 -4 -3 -1 1 5 7 10 13 15 14 11 8 6 4 6 7 8 6 5 4 4 5 5 3 1 -2 -1 0 2 3 1 -0 -1 -0 1 1 1 2 2 2 1 1 0 -0 -1 -1 -1 -1 -1 -0 0 0 0 -0 -0
7 13 20 24 17 9 2 -0 -1 -2 -3 -4 -5 -5 -4 -2 2 6 8 9 8 8 8 7 7 5 3 0 2 5 6 5 4 3 4 5 5 3 1 -1 -1 1 2 3 1 0 -0 0 1 1 1 1 1 1 1 1 0 -0 -0 -1 -1 -1 -1 -1 -0 -0 -1 -1 -1
6 12 19 26 24 18 10 3 -3 -7 -8 -8 -6 -5 -3 -1 1 2 3 2 2 4 5 6 5 3 0 -1 -0 1 2 3 3 4 5 6 6 4 2 -0 -0 1 3 3 1 0 1 1 1 1 1 1 1 1 1 1 0 -0 -0 -1 -1 -1 -1 -1 -1 -1 -1 -1 -1
2 6 12 18 22 21 17 10 3 -2 -5 -5 -4 -3 -2 -3 -4 -4 -4 -2 1 5 9 11 9 7 5 5 4 3 2 2 3 4 5 6 5 4 2 -0 0 1 2 2 1 1 1 2 1 1 1 1 1 1 1 1 0 -0 -0 -1 -1 -1 -2 -2 -2 -2 -2 -1 -1
-1 1 4 7 12 16 17 14 10 7 4 2 0 -1 -1 -2 -2 -0 1 3 5 7 9 9 8 6 5 5 7 6 4 1 2 3 5 6 4 2 0 -1 0 2 2 2 1 1 2 2 2 1 1 1 1 1 1 1 0 -0 -1 -1 -1 -2 -2 -2 -2 -2 -2 -1 -1
-2 -1 1 2 6 10 12 13 12 11 9 7 4 3 1 1 3 6 8 7 6 5 3 2 0 -1 -2 -1 2 3 3 2 3 4 5 5 2 0 -1 -2 -0 1 2 2 2 2 3 3 2 2 1 1 1 1 1 0 -0 -1 -1 -1 -1 -2 -2 -2 -2 -2 -1 -1 -1
-2 0 3 6 6 7 9 11 11 9 8 7 8 7 6 5 5 5 4 2 1 -1 -3 -4 -6 -7 -6 -4 -1 1 3 5 6 6 4 2 0 -2 -3 -2 -0 2 2 2 2 3 3 4 3 2 2 2 1 1 -0 -1 -1 -1 -2 -1 -2 -2 -2 -2 -2 -1 -1 -1 -1
4 7 11 12 7 4 4 7 8 8 8 8 9 9 8 6 4 1 -0 0 -1 -4 -7 -8 -9 -8 -5 0 3 4 4 6 9 8 5 1 -1 -3 -3 -2 1 2 3 3 3 4 4 4 3 2 2 1 1 -0 -1 -1 -2 -2 -2 -2 -1 -2 -2 -2 -2 -1 -1 -1 -1
9 12 14 12 3 -3 -5 -2 3 8 11 11 9 6 3 3 3 2 2 4 3 0 -3 -6 -6 -5 -2 2 3 3 3 5 9 10 7 2 -1 -2 -2 -0 2 4 4 4 4 5 4 3 2 1 1 1 -0 -1 -2 -2 -2 -2 -2 -2 -2 -1 -2 -2 -2 -1 -1 -1 -1
4 8 10 8 0 -7 -11 -11 -3 6 13 14 8 3 1 4 7 7 7 6 5 4 2 0 -1 -3 -3 -2 -1 -0 0 3 7 8 7 3 0 -1 -1 1 4 5 6 5 5 5 4 2 2 1 0 -0 -1 -2 -3 -3 -2 -2 -2 -2 -2 -2 -1 -2 -2 -2 -1 -1 -2
Height
1407 1407 1408 1409 1410 1411 1412 1414 1415 1416 1417 1417 1419 1421 1423 1423 1423 1423 1425 1428 1429 1429 1429 1429 1429 1431 1433 1435 1437 1439 1440 1442 1443 1445 1446 1447 1448 1449 1451 1453 1455 1457 1458 1460 1462 1463 1465 1468 1471 1475 1477 1479 1479 1481 1482 1483 1483 1484 1485 1486 1487 1488 1488 1489 1490 1490 1491 1491 1491
1407 1407 1408 1409 1410 1411 1412 1414 1416 1418 1418 1419 1421 1423 1424 1424 1423 1424 1426 1429 1429 1429 1428 1428 1429 1431 1432 1434 1436 1438 1439 1441 1442 1443 1444 1445 1447 1448 1451 1453 1456 1457 1458 1459 1460 1462 1464 1468 1472 1475 1477 1477 1478 1479 1481 1482 1483 1483 1484 1485 1486 1487 1488 1488 1489 1489 1490 1490 1490
1407 1408 1408 1409 1410 1411 1412 1414 1416 1418 1419 1421 1423 1425 1426 1426 1425 1425 1427 1429 1429 1428 1428 1428 1429 1430 1432 1433 1436 1438 1440 1441 1442 1443 1443 1444 1446 1448 1450 1452 1454 1455 1455 1456 1457 1460 1464 1468 1473 1475 1476 1477 1478 1479 1480 1481 1482 1483 1484 1485 1486 1487 1487 1488 1488 1488 1489 1489 1490
1408 1408 1408 1409 1410 1410 1411 1412 1414 1416 1418 1421 1423 1425 1427 1427 1426 1427 1428 1430 1430 1429 1428 1428 1429 1430 1431 1433 1435 1438 1440 1442 1443 1443 1443 1443 1445 1448 1450 1452 1453 1454 1454 1455 1456 1459 1463 1468 1472 1474 1475 1476 1477 1478 1479 1481 1482 1483 1484 1484 1485 1486 1486 1487 1487 1488 1488 1488 1488
1407 1408 1408 1409 1409 1410 1410 1411 1413 1415 1418 1420 1422 1424 1426 1427 1427 1428 1429 1429 1429 1428 1428 1428 1429 1429 1430 1432 1434 1437 1439 1441 1443 1443 1443 1443 1445 1449 1453 1456 1458 1459 1459 1459 1459 1461 1464 1468 1471 1473 1474 1475 1475 1476 1478 1479 1481 1482 1483 1483 1484 1485 1485 1486 1486 1486 1487 1487 1488
1406 1406 1407 1407 1407 1408 1409 1410 1412 1415 1418 1420 1421 1423 1425 1427 1428 1428 1429 1429 1428 1428 1428 1428 1428 1428 1429 1431 1433 1436 1438 1441 1443 1444 1445 1446 1448 1451 1454 1457 1459 1460 1460 1460 1461 1463 1465 1468 1470 1472 1472 1473 1474 1476 1477 1478 1479 1481 1482 1482 1483 1483 1484 1484 1485 1485 1486 1486 1486
1405 1404 1404 1404 1404 1405 1406 1408 1411 1413 1415 1416 1418 1420 1423 1425 1427 1428 1429 1430 1429 1428 1428 1427 1427 1428 1429 1432 1434 1438 1440 1443 1444 1446 1448 1449 1450 1452 1453 1455 1456 1457 1458 1459 1461 1463 1465 1467 1468 1469 1471 1472 1473 1475 1476 1477 1478 1479 1480 1481 1481 1482 1483 1483 1483 1484 1484 1485 1485
1403 1403 1403 1402 1402 1403 1404 1406 1407 1409 1410 1412 1414 1416 1419 1421 1424 1426 1428 1430 1430 1429 1428 1427 1427 1428 1430 1433 1436 1439 1442 1443 1444 1446 1447 1449 1450 1451 1453 1454 1455 1456 1457 1459 1461 1463 1464 1466 1467 1468 1469 1471 1473 1474 1475 1476 1477 1478 1478 1479 1480 1480 1481 1482 1483 1483 1483 1484 1484
1402 1403 1402 1401 1401 1402 1403 1404 1405 1406 1408 1410 1413 1415 1417 1418 1420 1422 1424 1427 1428 1428 1428 1427 1427 1428 1429 1433 1436 1439 1441 1442 1443 1444 1446 1447 1449 1450 1452 1453 1454 1455 1457 1458 1460 1462 1463 1465 1466 1468 1469 1470 1472 1473 1474 1475 1476 1476 1477 1478 1478 1479 1480 1481 1481 1482 1483 1483 1484
1401 1401 1401 1400 1400 1400 1401 1402 1403 1404 1406 1408 1411 1413 1414 1416 1417 1418 1419 1422 1423 1425 1425 1426 1427 1428 1430 1433 1436 1438 1440 1441 1442 1443 1445 1446 1448 1449 1451 1452 1453 1454 1456 1458 1460 1462 1463 1464 1466 1467 1468 1470 1471 1472 1473 1473 1474 1475 1476 1477 1478 1478 1479 1480 1481 1481 1482 1483 1483
1399 1400 1400 1400 1399 1399 1399 1401 1402 1403 1404 1406 1409 1411 1413 1413 1414 1415 1416 1418 1419 1421 1423 1424 1426 1428 1430 1433 1435 1437 1439 1440 1441 1442 1444 1446 1447 1448 1450 1451 1453 1454 1456 1458 1460 1462 1463 1464 1465 1467 1468 1469 1470 1471 1472 1473 1473 1474 1475 1476 1477 1478 1478 1479 1480 1481 1482 1482 1482
1397 1398 1398 1398 1398 1398 1398 1399 1400 1401 1403 1405 1407 1409 1410 1411 1412 1413 1414 1415 1417 1418 1421 1423 1425 1427 1429 1432 1434 1437 1438 1439 1440 1442 1443 1445 1447 1448 1449 1450 1452 1454 1456 1458 1460 1461 1462 1463 1465 1466 1468 1469 1470 1471 1472 1472 1473 1474 1474 1476 1477 1478 1478 1479 1480 1480 1481 1481 1482
1395 1396 1397 1397 1398 1398 1398 1398 1399 1400 1402 1403 1406 1407 1408 1409 1410 1411 1413 1414 1415 1417 1419 1421 1423 1425 1427 1430 1433 1435 1437 1438 1439 1441 1443 1445 1446 1447 1448 1450 1452 1454 1456 1458 1459 1460 1462 1463 1464 1466 1467 1468 1469 1470 1471 1472 1473 1473 1474 1475 1476 1477 1478 1479 1479 1480 1480 1480 1480
1393 1394 1395 1396 1396 1397 1397 1398 1398 1399 1401 1402 1404 1405 1406 1407 1408 1409 1411 1413 1414 1416 1417 1419 1422 1423 1426 1428 1431 1433 1435 1437 1439 1441 1443 1444 1445 1447 1448 1450 1452 1453 1455 1456 1458 1459 1461 1463 1464 1466 1467 1468 1469 1470 1470 1471 1472 1473 1474 1475 1476 1477 1478 1478 1478 1479 1479 1479 1480
1390 1391 1393 1393 1394 1395 1395 1396 1397 1398 1399 1401 1402 1403 1404 1405 1407 1408 1410 1411 1413 1414 1416 1418 1420 1422 1425 1428 1430 1432 1434 1435 1438 1440 1442 1443 1444 1446 1447 1449 1451 1452 1453 1455 1457 1459 1461 1462 1464 1465 1467 1468 1468 1469 1470 1471 1472 1473 1473 1474 1475 1476 1477 1477 1478 1478 1478 1478 1478
1388 1389 1389 1391 1392 1392 1393 1393 1395 1397 1398 1399 1400 1401 1403 1404 1405 1407 1408 1410 1412 1413 1414 1416 1418 1421 1424 1427 1429 1431 1432 1434 1436 1438 1440 1442 1443 1444 1446 1448 1449 1451 1452 1454 1456 1458 1460 1462 1463 1465 1466 1467 1468 1469 1469 1470 1471 1472 1473 1474 1475 1475 1476 1477 1477 1477 1478 1478 1478
1387 1387 1387 1388 1389 1389 1389 1391 1392 1394 1395 1396 1398 1399 1400 1402 1404 1405 1407 1408 1409 1411 1412 1415 1418 1420 1423 1425 1428 1429 1431 1432 1434 1436 1438 1440 1441 1443 1444 1446 1448 1449 1451 1453 1455 1457 1459 1461 1463 1464 1465 1467 1468 1468 1469 1470 1471 1472 1473 1473 1474 1475 1475 1476 1476 1476 1477 1477 1477
1385 1385 1385 1386 1386 1386 1387 1388 1389 1391 1393 1394 1395 1396 1398 1399 1402 1404 1406 1407 1408 1408 1411 1413 1417 1420 1422 1424 1426 1428 1429 1431 1433 1434 1437 1438 1440 1441 1443 1445 1447 1448 1450 1452 1454 1456 1458 1459 1461 1463 1464 1466 1467 1468 1469 1469 1470 1471 1472 1473 1473 1474 1474 1475 1475 1475 1476 1476 1476
1383 1383 1383 1384 1384 1384 1385 1385 1387 1389 1390 1392 1393 1394 1396 1398 1399 1402 1403 1405 1406 1407 1409 1413 1416 1418 1420 1423 1424 1426 1428 1429 1431 1433 1435 1437 1439 1440 1442 1444 1446 1448 1449 1451 1453 1455 1457 1458 1460 1462 1463 1465 1466 1467 1468 1469 1469 1470 1471 1471 1472 1473 1473 1474 1474 1474 1474 1474 1474
1381 1381 1381 1381 1382 1383 1383 1384 1385 1387 1388 1390 1392 1393 1394 1396 1398 1399 1401 1403 1404 1406 1408 1411 1414 1417 1419 1421 1423 1425 1427 1428 1430 1433 1434 1436 1438 1440 1441 1443 1444 1446 1448 1450 1452 1454 1456 1458 1459 1461 1463 1464 1465 1466 1467 1468 1468 1469 1470 1470 1471 1472 1472 1473 1473 1473 1473 1473 1473
1379 1378 1379 1379 1380 1381 1381 1382 1383 1385 1386 1388 1390 1392 1393 1395 1396 1398 1399 1401 1403 1404 1407 1409 1412 1414 1417 1419 1421 1424 1426 1428 1430 1432 1434 1436 1437 1439 1440 1442 1443 1445 1447 1449 1450 1452 1454 1456 1458 1460 1462 1463 1464 1465 1466 1467 1468 1468 1468 1469 1470 1470 1471 1472 1472 1472 1472 1472 1472
1377 1377 1377 1377 1378 1379 1380 1381 1382 1383 1384 1386 1388 1390 1392 1393 1395 1397 1398 1400 1402 1403 1405 1408 1410 1413 1415 1417 1420 1422 1425 1428 1430 1432 1434 1435 1437 1438 1440 1441 1443 1444 1446 1447 1449 1451 1453 1455 1457 1459 1461 1462 1463 1464 1465 1466 1466 1467 1468 1468 1468 1469 1470 1470 1471 1471 1471 1471 1471
1373 1375 1376 1377 1377 1378 1378 1379 1380 1381 1383 1384 1386 1388 1391 1392 1394 1396 1398 1399 1400 1402 1404 1407 1409 1412 1414 1416 1419 1421 1424 1427 1430 1432 1433 1435 1436 1437 1439 1440 1441 1443 1444 1446 1448 1450 1452 1454 1456 1458 1460 1461 1462 1463 1464 1465 1465 1466 1466 1467 1468 1468 1468 1469 1469 1470 1470 1470 1469
1369 1372 1374 1376 1376 1376 1377 1378 1379 1380 1381 1383 1384 1387 1388 1391 1393 1395 1396 1398 1399 1401 1403 1406 1408 1411 1413 1416 1418 1421 1423 1426 1429 1431 1433 1434 1435 1436 1437 1439 1440 1441 1443 1445 1447 1448 1451 1453 1455 1457 1459 1460 1461 1462 1463 1463 1464 1465 1465 1466 1466 1467 1467 1468 1468 1468 1468 1468 1468
1366 1368 1371 1373 1374 1375 1375 1376 1377 1378 1380 1381 1383 1384 1386 1388 1391 1393 1394 1396 1398 1400 1402 1405 1408 1410 1413 1415 1418 1421 1423 1426 1428 1429 1431 1432 1433 1435 1436 1437 1439 1440 1442 1444 1446 1448 1450 1452 1454 1456 1458 1459 1460 1461 1462 1463 1463 1463 1464 1464 1465 1466 1466 1466 1466 1467 1467 1466 1466
1364 1365 1367 1369 1371 1373 1373 1374 1375 1377 1378 1380 1381 1383 1384 1386 1388 1390 1392 1394 1396 1399 1401 1404 1407 1409 1412 1415 1417 1420 1423 1425 1427 1428 1429 1430 1431 1433 1434 1435 1437 1439 1441 1443 1445 1447 1449 1452 1453 1455 1457 1458 1459 1460 1461 1461 1462 1462 1463 1463 1464 1464 1464 1465 1465 1465 1465 1465 1464
1362 1363 1364 1367 1368 1369 1370 1372 1374 1375 1377 1378 1379 1380 1382 1384 1386 1388 1390 1392 1395 1397 1400 1403 1406 1408 1411 1413 1416 1418 1421 1424 1426 1427 1428 1428 1429 1431 1432 1434 1436 1438 1440 1442 1444 1446 1448 1450 1453 1454 1456 1457 1458 1459 1459 1460 1460 1461 1461 1462 1462 1463 1463 1463 1463 1463 1463 1463 1463
1359 1361 1363 1365 1365 1365 1366 1369 1371 1373 1374 1376 1377 1378 1380 1382 1384 1387 1388 1391 1393 1396 1399 1402 1405 1407 1409 1412 1414 1416 1419 1422 1424 1425 1427 1427 1428 1429 1431 1433 1435 1438 1440 1442 1443 1445 1448 1449 1451 1453 1455 1456 1457 1457 1458 1458 1459 1459 1460 1460 1461 1461 1461 1461 1462 1462 1462 1462 1461
1357 1359 1360 1362 1363 1363 1364 1366 1368 1370 1372 1374 1375 1377 1379 1381 1383 1385 1387 1389 1392 1394 1397 1400 1403 1405 1408 1410 1412 1414 1417 1420 1422 1423 1425 1426 1428 1429 1431 1433 1435 1437 1439 1441 1443 1444 1446 1448 1450 1452 1453 1454 1455 1456 1456 1457 1457 1458 1458 1458 1459 1459 1459 1460 1460 1460 1460 1460 1460
1355 1357 1358 1359 1360 1361 1362 1364 1366 1368 1370 1373 1374 1376 1378 1380 1382 1384 1386 1388 1390 1393 1395 1398 1400 1403 1405 1408 1410 1413 1416 1418 1420 1422 1423 1425 1427 1428 1431 1433 1435 1437 1438 1440 1442 1443 1445 1447 1449 1450 1452 1453 1453 1454 1455 1455 1456 1456 1457 1457 1457 1458 1458 1458 1459 1459 1459 1458 1458
1353 1355 1356 1357 1358 1359 1361 1363 1365 1367 1369 1371 1373 1376 1377 1379 1381 1383 1384 1387 1389 1392 1394 1397 1398 1401 1403 1406 1409 1411 1414 1416 1418 1420 1422 1424 1426 1428 1430 1432 1434 1436 1438 1439 1441 1442 1444 1446 1447 1448 1450 1451 1452 1453 1453 1453 1454 1454 1455 1455 1456 1456 1457 1457 1457 1457 1457 1457 1457
1351 1353 1355 1356 1357 1358 1359 1362 1364 1366 1368 1370 1372 1374 1376 1378 1380 1382 1383 1386 1388 1392 1394 1396 1398 1400 1402 1405 1408 1410 1413 1415 1417 1419 1422 1424 1426 1428 1430 1431 1433 1435 1437 1438 1440 1441 1443 1444 1445 1447 1448 1449 1450 1451 1451 1452 1452 1453 1453 1454 1455 1455 1455 1456 1456 1456 1456 1456 1456
1349 1351 1353 1355 1356 1356 1358 1360 1362 1364 1366 1368 1371 1373 1375 1377 1379 1381 1383 1386 1388 1391 1393 1395 1397 1399 1401 1404 1407 1410 1412 1413 1416 1418 1421 1423 1425 1427 1429 1430 1433 1434 1436 1437 1438 1440 1441 1443 1444 1445 1446 1447 1448 1449 1450 1450 1451 1451 1452 1453 1453 1454 1454 1454 1454 1454 1454 1454 1454
1348 1349 1351 1354 1355 1356 1357 1358 1359 1362 1364 1367 1369 1371 1373 1375 1378 1380 1382 1385 1388 1390 1392 1394 1396 1398 1401 1403 1406 1408 1411 1413 1415 1418 1420 1423 1424 1426 1428 1429 1431 1433 1434 1436 1437 1438 1439 1441 1442 1443 1444 1445 1446 1447 1448 1448 1449 1450 1451 1451 1452 1452 1453 1453 1453 1453 1453 1453 1453
1347 1348 1349 1351 1353 1355 1356 1356 1357 1359 1361 1364 1366 1369 1371 1373 1375 1377 1380 1383 1386 1389 1392 1394 1397 1399 1401 1404 1406 1408 1410 1412 1415 1417 1419 1422 1423 1425 1426 1428 1430 1432 1433 1434 1436 1437 1438 1439 1440 1441 1443 1443 1444 1445 1446 1447 1448 1448 1449 1450 1450 1451 1451 1451 1451 1451 1452 1452 1452
1346 1346 1347 1348 1351 1353 1355 1355 1356 1357 1359 1361 1363 1365 1368 1370 1373 1375 1378 1382 1385 1388 1391 1394 1396 1398 1401 1404 1406 1408 1410 1412 1414 1416 1418 1420 1422 1423 1425 1427 1428 1430 1432 1433 1434 1435 1436 1438 1439 1440 1441 1442 1443 1444 1445 1446 1446 1447 1448 1448 1449 1449 1449 1449 1450 1450 1450 1450 1450
1344 1344 1345 1346 1348 1351 1353 1354 1355 1356 1357 1358 1360 1362 1364 1367 1370 1374 1377 1380 1383 1386 1389 1393 1395 1397 1399 1403 1405 1408 1410 1412 1413 1416 1418 1419 1421 1422 1424 1425 1427 1429 1430 1432 1433 1434 1435 1436 1437 1438 1439 1440 1441 1443 1443 1444 1445 1446 1447 1447 1447 1448 1448 1448 1448 1448 1448 1449 1449
1342 1342 1343 1344 1346 1348 1350 1352 1353 1354 1355 1357 1358 1360 1362 1364 1368 1371 1374 1377 1380 1384 1388 1391 1393 1395 1398 1402 1405 1407 1409 1412 1414 1415 1417 1418 1419 1421 1423 1424 1426 1428 1429 1430 1431 1433 1433 1434 1436 1437 1438 1439 1440 1441 1442 1443 1444 1444 1445 1445 1446 1446 1447 1447 1447 1447 1447 1447 1448
1339 1340 1341 1343 1344 1346 1348 1350 1352 1353 1354 1355 1357 1358 1360 1362 1365 1368 1371 1375 1379 1383 1386 1388 1391 1394 1397 1401 1403 1406 1409 1411 1413 1415 1416 1417 1418 1420 1422 1423 1424 1426 1428 1429 1430 1431 1432 1433 1434 1436 1437 1438 1439 1440 1441 1442 1443 1443 1444 1444 1444 1445 1445 1445 1445 1446 1446 1446 1446
1337 1338 1340 1341 1342 1344 1347 1349 1351 1352 1353 1354 1355 1356 1358 1361 1363 1366 1370 1374 1378 1381 1384 1387 1389 1392 1396 1399 1402 1405 1407 1410 1412 1414 1415 1416 1418 1419 1421 1422 1423 1425 1426 1428 1429 1430 1431 1432 1433 1434 1435 1436 1438 1438 1439 1441 1441 1442 1442 1443 1443 1443 1443 1444 1444 1444 1444 1444 1444
1335 1336 1338 1338 1339 1340 1343 1346 1348 1350 1352 1352 1353 1354 1357 1360 1363 1365 1369 1373 1376 1380 1383 1385 1388 1391 1394 1397 1400 1403 1405 1408 1410 1412 1414 1415 1417 1418 1419 1421 1422 1423 1425 1426 1428 1428 1430 1431 1432 1433 1434 1435 1436 1438 1438 1439 1440 1440 1441 1441 1442 1442 1442 1442 1442 1443 1443 1443 1443